timestamp_utc;nh3_ug_m3;co2_ppm;co_mg_m3;rh;no_ug_m3;no2_ug_m3;o3_ug_m3;pm10_ug_m3;pm25_ug_m3;so2_ug_m3;t;voc_index
07.03.2022 13:00;2,34;;0,08;34,76;10,32;10,22;71,54;10,79;0,33;;7,93;
07.03.2022 14:00;2,2;;0,1;33,36;4,09;1,93;84,96;9,98;0,37;;9,48;
07.03.2022 15:00;2,16;;0,1;34,26;3,9;1,6;84,07;4,45;0,35;;8,74;
07.03.2022 16:00;2,2;;0,12;35,24;3,84;1,61;81,9;11,06;0,33;;7,88;
07.03.2022 17:00;2,18;;0,12;38,67;3,56;1,35;77,36;6,89;0,4;;4,95;
07.03.2022 18:00;2,3;;0,16;39,7;4,4;2,14;74,41;10,24;0,44;;4,35;
07.03.2022 19:00;2,39;;0,19;40,51;4,9;2,81;72,54;14,2;0,49;;4,15;
07.03.2022 20:00;2,63;;0,22;41,57;9,11;8,46;61,87;11,14;0,45;;4,02;
07.03.2022 21:00;3,46;;0,29;45,05;23,66;28,29;30,21;15,2;0,5;;2,68;
07.03.2022 22:00;3,85;;0,33;45,71;28,31;34,64;26,13;37,46;1,1;;2,4;
07.03.2022 23:00;4,15;;0,39;46,87;32,83;40,83;20,69;34,17;1,29;;2,22;
08.03.2022 00:00;4,31;;0,4;50,36;35,09;43,93;19,79;18,18;1,14;;1,01;
08.03.2022 01:00;3,07;;0,24;50,58;12,75;13,37;50,64;15,35;0,67;;0,45;
08.03.2022 02:00;3,01;;0,22;53,06;10,7;10,56;52,03;12,58;0,45;;-0,59;
08.03.2022 03:00;3,1;;0,24;50,4;12,83;13,47;50,67;15,51;0,58;;0,81;
08.03.2022 04:00;3,23;;0,26;50,67;14,09;15,2;48,44;6,38;0,48;;0,67;
08.03.2022 05:00;3,77;;0,35;52,14;26,67;32,4;23,92;12,67;0,43;;0,23;
08.03.2022 06:00;3,35;;0,31;54,81;15,57;17,22;39,78;11,16;0,53;;-0,92;
08.03.2022 07:00;3,81;;0,38;51,41;23,71;28,36;27,54;22,76;0,67;;0,92;
08.03.2022 08:00;3,53;;0,32;47,28;17,64;20,05;41,1;30,48;0,74;;3,44;
08.03.2022 09:00;2,94;;0,24;42,47;9,78;9,3;60,18;23,27;0,57;;6,46;
08.03.2022 10:00;2,28;;0,15;38,98;4,11;1,87;81,42;4,87;0,39;;7,89;
08.03.2022 11:00;2,15;;0,13;36,39;3,83;1,53;83,39;11,88;0,38;;8,42;
08.03.2022 12:00;2,18;;0,14;33,29;3,77;1,49;86,54;6,4;0,32;;10,68;
08.03.2022 13:00;2,15;;0,14;30,56;3,88;1,58;88,07;10,9;0,47;;12,83;
08.03.2022 14:00;2,14;;0,14;29,53;3,74;1,44;89,21;6,82;0,27;;13,52;
08.03.2022 15:00;2,14;;0,14;28,66;3,9;1,61;89,15;7,99;0,27;;13,64;
08.03.2022 16:00;2,15;;0,14;30,44;3,68;1,45;87;12,76;0,37;;11,51;
08.03.2022 17:00;2,21;;0,15;33,52;3,85;1,49;84,37;10,76;0,81;;8,77;
08.03.2022 18:00;2,2;;0,14;35,83;3,75;1,47;78,87;10,77;0,39;;6,74;
08.03.2022 19:00;2,54;;0,2;39,51;6,62;5,12;69,42;10,04;0,46;;4,87;
08.03.2022 20:00;2,75;;0,24;44,02;6,72;5,12;66,6;6,96;0,42;;2,87;
08.03.2022 21:00;2,67;;0,24;43,2;6,14;4,33;67,7;18,6;0,44;;3,7;
08.03.2022 22:00;2,7;;0,24;46,39;6,56;4,91;65,42;5,26;0,51;;2,19;
08.03.2022 23:00;2,9;;0,27;45,4;8,96;8,17;59,13;23,02;0,6;;3,06;
09.03.2022 00:00;3,71;;0,38;48,04;23,06;27,46;32,82;19,72;0,72;;2,88;
09.03.2022 01:00;3,88;;0,37;49,89;25,65;31,01;29,49;13,4;0,75;;1,91;
09.03.2022 02:00;3,67;;0,33;50,17;22,05;26,09;28,74;20,68;0,81;;1,54;
09.03.2022 03:00;4,04;;0,39;52,71;28;34,23;24,1;19,27;0,75;;0,84;
09.03.2022 04:00;3,85;;0,33;52,93;25,89;31,34;24,82;13,43;0,7;;0,37;
09.03.2022 05:00;4,13;;0,38;52,87;27,25;33,2;24,63;15,38;0,59;;0,42;
09.03.2022 06:00;4,6;;0,43;53,86;32,61;40,53;20,52;22,03;0,64;;0,26;
09.03.2022 07:00;4,84;;0,45;51,18;33,21;41,35;20,53;20,37;0,92;;1,4;
09.03.2022 08:00;4,58;;0,41;44,28;31,62;39,18;24,31;29,16;0,64;;5,6;
09.03.2022 09:00;4,64;;0,42;39,56;32,48;40,36;24,41;48,79;1;;9,27;
09.03.2022 10:00;4,24;;0,37;36;26,06;31,57;44,47;66,79;1,19;;12,45;
09.03.2022 11:00;3,47;;0,31;35,01;13,72;14,68;61,16;42,68;0,61;;13,18;
09.03.2022 12:00;3,09;;0,27;32,21;9,53;8,96;73,1;20,35;0,41;;16,32;
09.03.2022 13:00;2,72;;0,22;30,82;6,95;5,43;86,11;15,22;0,41;;17,81;
09.03.2022 13:00;2,72;;0,22;30,82;6,95;5,43;86,11;15,22;0,41;;17,81;
09.03.2022 14:00;2,81;;0,23;30,09;7,4;6,04;86,15;22,11;0,59;;18,78;
09.03.2022 15:00;2,69;;0,22;28,13;7,12;5,66;91,37;12,28;0,45;;20,81;
09.03.2022 16:00;2,69;;0,24;30,22;7,22;5,79;83,07;21,38;0,77;;18,18;
09.03.2022 17:00;2,72;;0,24;34,57;6,7;5,08;79,57;30,56;0,88;;13,57;
09.03.2022 18:00;4,28;;0,45;35,43;27,04;32,91;42,64;46,44;1,07;;12,76;
09.03.2022 19:00;5,44;;0,5;38,53;38,39;48,44;28,13;55,31;1,58;;11,21;
09.03.2022 20:00;5,19;;0,42;45,39;36,51;45,87;20,97;40,48;1,35;;7,37;
09.03.2022 21:00;5,42;;0,46;47,08;39,03;49,31;20,05;28,12;1,16;;6,66;
09.03.2022 22:00;5,96;;0,51;48,62;43,61;55,58;16,65;33,66;1,46;;6,05;
09.03.2022 23:00;6,32;;0,53;50,99;46,12;59,02;12,27;37,26;1,63;;4,97;
10.03.2022 00:00;6,24;;0,5;53,59;46,3;59,27;11,79;36,95;1,61;;3,64;
10.03.2022 01:00;6,1;;0,47;53,28;45,44;58,1;14,71;32,09;1,46;;3,45;
10.03.2022 02:00;6,06;;0,46;54,37;45,91;58,73;15,06;34,98;1,34;;2,73;
10.03.2022 03:00;5,93;;0,44;54,34;45,03;57,53;15,54;39,16;1,32;;2,53;
10.03.2022 04:00;5,8;;0,42;56,18;43,88;55,96;16,12;34,98;1,19;;1,53;
10.03.2022 05:00;5,84;;0,43;56,32;42,51;54,08;17,16;15,21;0,96;;1,31;
10.03.2022 06:00;5,84;;0,46;57,29;42,29;53,78;16,98;31,77;1,1;;0,7;
10.03.2022 07:00;5,92;;0,47;52,27;41,07;52,12;17,86;44,39;1,1;;3,05;
10.03.2022 08:00;5,98;;0,48;47,72;43,89;55,96;14,46;52,42;1,09;;6,24;
10.03.2022 09:00;5,25;;0,39;39,46;38,61;48,75;28,73;44,64;0,89;;12,1;
10.03.2022 10:00;4,35;;0,31;35,33;24,51;29,45;53,72;13,83;0,46;;16,17;
10.03.2022 11:00;3,56;;0,26;30,73;14,14;15,27;78,82;14;0,44;;20,52;
10.03.2022 12:00;2,38;;0,16;30,1;5,06;2,99;94,08;13,33;0,26;;18,59;
10.03.2022 13:00;2,3;;0,15;28,4;4,5;2,23;95,75;7,51;0,28;;19,74;
10.03.2022 14:00;2,25;;0,14;27,96;4,03;1,75;94,73;4,41;0,29;;18,95;
10.03.2022 15:00;2,25;;0,15;26,38;4,08;1,8;96,17;8,39;0,25;;20,03;
10.03.2022 16:00;2,22;;0,15;26,74;4,02;1,73;93,35;8,05;0,29;;18,31;
10.03.2022 17:00;2,21;;0,15;27,62;3,95;1,55;89,73;12,75;0,67;;15,22;
10.03.2022 18:00;2,36;;0,18;31,54;4,63;2,42;85,35;12,32;0,4;;12,46;
10.03.2022 19:00;2,31;;0,15;35,64;3,89;1,59;85,41;14,11;0,44;;9,86;
10.03.2022 20:00;2,39;;0,17;37,2;4,45;2,29;82,97;12,47;0,46;;8,6;
10.03.2022 21:00;2,55;;0,19;36,59;5,86;4,15;80,23;10,29;0,5;;8,99;
10.03.2022 22:00;3,93;;0,36;38,04;23,19;27,64;40,24;27,02;0,59;;9,31;
10.03.2022 23:00;3,03;;0,24;40,61;8,23;7,17;66,38;10,75;0,5;;7,44;
11.03.2022 00:00;3,01;;0,23;42,06;7,84;6,64;65,41;8,72;0,4;;7,39;
11.03.2022 01:00;2,77;;0,19;45,52;5,9;4,02;68,34;13,89;0,44;;6,26;
11.03.2022 02:00;2,49;;0,17;47,67;4,7;2,53;71,84;16,83;0,48;;5,69;
11.03.2022 03:00;2,44;;0,16;50,57;4,42;2,13;73,64;23,33;0,73;;4,46;
11.03.2022 04:00;2,35;;0,15;50,54;3,94;1,6;74,72;18,42;0,51;;2,93;
11.03.2022 05:00;2,38;;0,16;45,92;4,18;1,97;74,65;9,21;0,58;;3,78;
11.03.2022 06:00;2,53;;0,21;43,12;5,38;3,4;71,2;7,49;0,5;;3,58;
11.03.2022 07:00;2,47;;0,19;40,4;5,48;3,48;71,67;15,21;0,43;;4,77;
11.03.2022 08:00;2,44;;0,2;37,2;5,15;3,04;74,64;22,77;0,38;;7,12;
11.03.2022 09:00;2,36;;0,18;36,73;4,55;2,34;80,6;8,98;0,46;;8,01;
11.03.2022 10:00;2,37;;0,18;34,86;4,64;2,44;84,69;11,13;0,45;;10,58;
11.03.2022 11:00;2,41;;0,18;33,16;4,8;2,65;85,48;10,71;0,33;;13,41;
11.03.2022 12:00;2,48;;0,19;31,11;5,29;3,23;87,64;12,26;0,3;;16,48;
11.03.2022 13:00;2,53;;0,18;29,67;5,52;3,5;90,79;11,58;0,48;;18,91;
11.03.2022 14:00;2,53;;0,18;30,21;5,3;3,23;90,63;10,76;0,44;;18,7;
11.03.2022 15:00;2,45;;0,17;30,33;4,74;2,52;90,97;11,34;0,55;;18,34;
11.03.2022 16:00;2,42;;0,17;31,56;4,55;2,26;89,83;14,8;0,47;;16,63;
11.03.2022 17:00;2,38;;0,17;34,53;4,14;1,93;85,76;18,61;0,59;;12,09;
11.03.2022 18:00;2,35;;0,17;35,35;4,03;1,71;85,18;19,19;0,75;;9,61;
11.03.2022 19:00;2,29;;0,16;34,05;3,91;1,57;85,25;19,02;0,62;;9,17;
11.03.2022 20:00;2,33;;0,19;33,38;4,35;2,2;83,34;18,67;0,57;;9,05;
14.03.2022 16:00;2,53;;0,16;41,61;5,09;2,98;89,89;16,98;0,44;;17,2;
14.03.2022 17:00;2,76;;0,17;44,53;6,06;4,2;84,78;24,8;0,46;;15,45;
14.03.2022 18:00;3,83;;0,27;46,55;15,06;16,52;65,45;24,22;0,62;;14,08;
14.03.2022 19:00;3,88;;0,26;52,12;14,74;16,09;57,56;32,52;0,54;;11,53;
14.03.2022 20:00;4,07;;0,26;58,71;17,4;19,72;45,31;20,61;0,64;;8,85;
14.03.2022 21:00;5,31;;0,39;58,37;40,48;51,3;21,02;19,83;0,71;;9,11;
14.03.2022 22:00;5,57;;0,41;58,71;43,7;55,71;16,92;21,74;0,78;;8,89;
14.03.2022 23:00;5,28;;0,33;59,85;40,3;51,06;20,08;27,8;0,84;;8,26;
15.03.2022 00:00;5,25;;0,34;62,13;40,01;50,66;18,95;20,49;0,77;;7,49;
15.03.2022 01:00;4,56;;0,27;68,23;26,23;31,8;31,73;25,94;0,66;;5,19;
15.03.2022 02:00;4,61;;0,27;63,82;29,99;36,95;28,24;21,29;0,72;;6,66;
15.03.2022 03:00;4,73;;0,28;63,22;33,18;41,31;22,68;21,99;0,48;;6,92;
15.03.2022 04:00;5,05;;0,29;63,85;38,24;48,24;20,23;15,44;0,57;;6,6;
15.03.2022 05:00;5,2;;0,32;62,64;40,61;51,48;19,34;16,62;0,66;;7,13;
15.03.2022 06:00;5,1;;0,29;65,82;36,75;46,2;20,75;20,35;0,63;;5,96;
15.03.2022 07:00;5,53;;0,35;62,86;40,45;51,26;19,52;40,24;0,93;;7,2;
15.03.2022 08:00;6,07;;0,4;60,85;42,11;53,54;18,32;51,65;1,17;;8,24;
15.03.2022 09:00;5,83;;0,35;59,2;41,04;52,06;19,78;36,24;0,84;;9,24;
15.03.2022 10:00;5,1;;0,29;57,46;29,69;36,53;33,73;47,96;0,83;;10,36;
15.03.2022 11:00;5,54;;0,35;55,51;36,24;45,5;24,02;51,78;1,1;;11,19;
15.03.2022 12:00;6,08;;0,39;58,82;41,21;52,3;22,44;47,08;1,26;;10,82;
15.03.2022 13:00;6,06;;0,35;62,07;40,98;51,98;22,37;45,3;1,1;;10,49;
15.03.2022 14:00;5,65;;0,3;60,92;32,32;40,13;32,49;32,27;1,02;;11,39;
15.03.2022 15:00;5,97;;0,33;61,31;38,74;48,92;29,05;42,06;0,79;;12,32;
15.03.2022 16:00;6,16;;0,37;74,09;39,66;50,19;20,56;44,53;0,95;;9,04;
15.03.2022 17:00;6,26;;0,37;75,41;43,89;55,97;17,98;37,61;1,49;;9,04;
15.03.2022 18:00;6,13;;0,31;74,54;44,21;56,4;17,13;28;0,93;;9,33;
15.03.2022 19:00;6,4;;0,33;73,44;46,75;59,88;16;26,16;1,17;;9,84;
15.03.2022 20:00;6,1;;0,3;77,67;43,53;55,48;17,43;31,79;1,03;;8,67;
15.03.2022 21:00;5,49;;0,26;82,82;37,04;46,6;20,93;13,87;0,69;;7;
15.03.2022 22:00;5,56;;0,27;75,02;40,35;51,13;21,04;6,71;0,51;;9,1;
15.03.2022 23:00;5,62;;0,28;75,48;42,21;53,67;18,72;13,08;0,87;;8,69;
16.03.2022 00:00;5,71;;0,28;76,88;43,45;55,37;17,34;15,69;0,93;;8,2;
16.03.2022 01:00;5,84;;0,29;73,19;46,2;59,13;16,13;7,96;0,78;;9,49;
16.03.2022 02:00;4,95;;0,24;72,75;32,65;40,59;28,11;7,02;0,67;;8,96;
16.03.2022 03:00;4,14;;0,2;70,51;20,28;23,67;41,8;4,48;0,63;;8,8;
16.03.2022 04:00;3,92;;0,2;73,78;17,8;20,26;43,13;6,6;0,69;;7,24;
16.03.2022 05:00;3,94;;0,21;70,62;18,36;21,04;42,24;5;0,53;;7,72;
16.03.2022 06:00;3,7;;0,19;70,41;13,77;14,75;50,69;7,73;0,45;;7,52;
16.03.2022 07:00;3,28;;0,17;74,15;8,62;7,71;60,25;6;0,35;;5,97;
16.03.2022 08:00;3,3;;0,17;71,82;8,79;7,94;60,81;8,38;0,31;;6,81;
16.03.2022 09:00;3,32;;0,17;71,19;8,45;7,48;61,98;5,2;0,36;;7,26;
16.03.2022 10:00;3,25;;0,17;70,15;7,62;6,34;68,02;3,57;0,32;;8,02;
16.03.2022 11:00;3,02;;0,16;62,94;6,61;4,97;72,83;1,4;0,21;;10,52;
16.03.2022 12:00;2,92;;0,16;51,95;6,15;4,33;80,71;1,1;0,12;;15,56;
16.03.2022 13:00;3,11;;0,17;49,53;7,12;5,66;81,09;3,79;0,17;;17,25;
16.03.2022 14:00;2,96;;0,16;53,23;6;4,13;80,55;5,15;0,33;;15,1;
16.03.2022 15:00;2,96;;0,16;56,67;5,78;3,84;78,05;10,72;0,34;;13,42;
16.03.2022 16:00;2,9;;0,16;57,24;5,65;3,69;76,69;11,41;0,36;;12,8;
16.03.2022 17:00;2,83;;0,15;56,66;5,14;3,11;78,61;9,9;0,41;;12,35;
16.03.2022 18:00;2,65;;0,15;57,26;4,63;2,45;75,48;7,26;0,24;;11,28;
16.03.2022 19:00;2,86;;0,16;55,74;5,64;3,73;78,62;10,21;0,46;;12,16;
16.03.2022 20:00;3,06;;0,17;55,78;6,98;5,48;77,16;8,82;0,32;;12,17;
16.03.2022 21:00;3,48;;0,19;54,17;9,84;9,38;72,08;5,52;0,59;;12,99;
16.03.2022 22:00;3,04;;0,17;56,58;6,86;5,34;74,64;19,15;0,57;;11,93;
16.03.2022 23:00;3,96;;0,22;55,09;18,22;20,84;58,18;14,28;0,53;;12,69;
17.03.2022 00:00;4,26;;0,23;54,59;19;21,91;53,9;8,59;0,65;;13;
17.03.2022 01:00;4,36;;0,24;55,55;21,57;25,42;45,48;6,47;0,53;;12,55;
17.03.2022 02:00;4,15;;0,23;56,3;18,17;20,77;52,11;14,75;0,61;;12,09;
17.03.2022 03:00;3,44;;0,19;58,04;9,99;9,58;67,47;5,51;0,52;;10,44;
17.03.2022 04:00;3,25;;0,18;56,98;8,06;6,95;71,04;9,8;0,56;;10,2;
17.03.2022 05:00;3,8;;0,21;54,9;15,24;16,76;56,39;8,77;0,58;;11,19;
17.03.2022 06:00;4,46;;0,28;54,97;24,93;30,03;41,69;18,57;0,7;;11,13;
17.03.2022 07:00;4,99;;0,34;54,92;31,05;38,4;33,21;24,91;0,94;;11,49;
17.03.2022 08:00;4,09;;0,25;54,97;17,06;19,25;54,16;36,04;0,98;;11,13;
17.03.2022 09:00;3,76;;0,22;50,99;12,96;13,64;64,61;25,57;0,71;;12,64;
17.03.2022 10:00;3,56;;0,21;50,2;11,95;12,26;67,76;28,61;0,74;;13,24;
17.03.2022 11:00;3,71;;0,22;52,75;12,23;12,65;66,09;16,33;1,01;;12,93;
17.03.2022 12:00;3,68;;0,24;54,88;10,91;10,84;65,96;19,84;0,93;;12,21;
17.03.2022 13:00;3,43;;0,22;53,24;9,11;8,37;72,64;14,63;0,99;;13,12;
17.03.2022 14:00;3,34;;0,19;52,87;8,45;7,47;75,56;20,95;0,78;;13,5;
17.03.2022 15:00;3,94;;0,25;56,72;12,59;13,14;64,17;24,42;1,18;;13,43;
17.03.2022 16:00;3,73;;0,24;63,09;9,43;8,82;63,77;58,84;1,5;;10,78;
17.03.2022 17:00;3,68;;0,24;69,14;9,56;8,99;59,85;15,66;0,95;;8,99;
17.03.2022 18:00;3,93;;0,22;76,55;12,23;12,65;51;18,2;1,38;;7,98;
17.03.2022 19:00;4,71;;0,26;73,58;25,63;30,98;38,6;24,35;1,93;;9,89;
17.03.2022 20:00;4,83;;0,25;73,27;28,89;35,45;33,6;20,47;1,87;;9,91;
17.03.2022 21:00;3,95;;0,19;75,7;14,23;15,39;48,69;9,6;0,79;;8,28;
17.03.2022 22:00;3,69;;0,18;75,75;11,62;11,81;53,53;5,34;0,44;;7,88;
17.03.2022 23:00;3,5;;0,17;72,74;9,67;9,15;60,27;10,53;0,43;;8,22;
18.03.2022 00:00;3,3;;0,16;67,97;8,4;7,41;65,24;17,84;0,44;;9,32;
18.03.2022 01:00;3,29;;0,16;68,37;8,31;7,28;66,07;17,36;0,37;;8,83;
18.03.2022 02:00;3,09;;0,15;68,34;6,75;5,14;70,19;12,43;0,33;;8,38;
18.03.2022 03:00;2,89;;0,15;68,63;5,57;3,56;67,52;17,07;0,37;;7,76;
18.03.2022 04:00;2,95;;0,15;65,1;6,38;4,65;65,49;10,34;0,38;;8,84;
18.03.2022 05:00;3;;0,15;65,85;6,77;5,18;67,18;10,19;0,3;;8,53;
18.03.2022 06:00;3,17;;0,17;65,75;7,68;6,42;65,12;4,27;0,35;;8,49;
18.03.2022 07:00;3,04;;0,16;67,25;6,67;5,04;68,09;20,05;0,55;;7,83;
18.03.2022 08:00;2,91;;0,16;67,86;5,79;3,85;67,43;31,13;0,75;;7,45;
18.03.2022 09:00;2,82;;0,15;65,01;5,19;3,1;65,79;19,45;0,91;;8,43;
18.03.2022 10:00;2,79;;0,15;65,03;5,48;3,43;64,66;15,78;0,92;;8,22;
18.03.2022 11:00;2,86;;0,16;60,55;5,86;3,94;69,92;24,06;1,27;;10,36;
18.03.2022 12:00;2,78;;0,15;56,23;5,46;3,48;72,39;14,36;1,23;;12,21;
18.03.2022 13:00;2,77;;0,15;51,66;5,49;3,49;79,45;18,77;1,21;;14,26;
18.03.2022 14:00;2,71;;0,15;51,49;5,19;3,05;79,94;9,3;0,67;;14,03;
18.03.2022 15:00;2,82;;0,17;51,66;5,51;3,52;81,61;21,9;0,61;;13,97;
18.03.2022 16:00;2,89;;0,16;54,75;6,03;4,18;78,86;17,59;0,77;;12,89;
18.03.2022 17:00;2,9;;0,16;57,89;5,88;3,99;76,07;17,38;0,95;;11,09;
18.03.2022 18:00;2,86;;0,16;62,08;5,63;3,65;73,67;20,77;1,28;;9,25;
18.03.2022 19:00;2,81;;0,15;65,04;5,01;2,89;72,71;29,42;1,86;;7,78;
18.03.2022 20:00;2,9;;0,17;66,76;5,31;3,31;72,6;27,36;1,93;;7,02;
18.03.2022 21:00;2,73;;0,15;66,78;4,9;2,78;69,7;20,8;2,25;;6,77;
18.03.2022 23:00;2,69;;0,15;68,75;4,67;2,49;65,03;51,33;2,39;;5,99;
19.03.2022 01:00;2,76;;0,15;68,2;5,19;3,13;65,77;36,74;2,28;;6,01;
19.03.2022 02:00;2,76;;0,15;66,97;5;2,83;66,15;30,97;1,95;;6,31;
19.03.2022 03:00;2,77;;0,15;65,84;5,12;2,97;65,17;30,47;2,07;;6,57;
19.03.2022 04:00;2,75;;0,15;67,3;4,92;2,82;67,97;32,92;1,84;;6;
19.03.2022 05:00;2,77;;0,15;69,9;4,89;2,71;66,16;33,2;1,88;;4,93;
19.03.2022 06:00;2,77;;0,15;69,54;5,15;3,07;64,12;39,21;2,05;;4,88;
19.03.2022 07:00;2,79;;0,15;67,81;5,41;3,33;63,12;48,56;1,72;;5,31;
19.03.2022 08:00;2,81;;0,15;62,54;5,33;3,27;68,38;30,64;1,24;;7,32;
19.03.2022 09:00;2,68;;0,15;57,65;5,19;3,07;71,25;24,18;1,21;;9,29;
19.03.2022 10:00;2,44;;0,15;50,18;4,25;2,08;79,99;22,66;1,18;;11,43;
19.03.2022 11:00;2,31;;0,13;42,9;3,86;1,61;87,83;86,7;2,55;;13,52;
19.03.2022 12:00;2,27;;0,12;41,43;3,91;1,63;87,41;175,47;2,94;;13,13;
19.03.2022 13:00;2,25;;0,13;36,24;4;1,68;91,25;37;1,21;;14,99;
19.03.2022 14:00;2,25;;0,13;31,53;3,98;1,69;92,93;18,53;0,42;;17,21;
19.03.2022 15:00;2,21;;0,14;30,12;4;1,72;91,46;5,12;0,27;;16,28;
19.03.2022 16:00;2,27;;0,13;38,72;3,97;1,66;86,4;8,07;0,7;;12,44;
19.03.2022 17:00;2,27;;0,12;48,7;3,83;1,5;80,24;129,3;5,63;;8,7;
19.03.2022 18:00;2,4;;0,14;55,72;4,02;1,74;70,25;15,84;0,43;;6,24;
19.03.2022 19:00;2,46;;0,14;61,3;4,34;2,04;63,89;15,4;0,73;;5,36;
19.03.2022 20:00;2,45;;0,14;60,61;4,06;1,82;63,33;21,71;0,9;;5,48;
19.03.2022 21:00;2,45;;0,14;59,9;4,1;1,83;63,49;15,36;0,93;;5,05;
19.03.2022 22:00;2,36;;0,13;56,51;3,7;1,46;68,14;21,37;0,8;;4,59;
19.03.2022 23:00;2,27;;0,13;53,38;3,69;1,28;75,82;15,11;0,75;;4,2;
20.03.2022 00:00;2,35;;0,14;48,13;3,97;1,7;75,83;14,2;0,73;;5,89;
20.03.2022 01:00;2,27;;0,13;46,09;3,73;1,34;77,28;15,45;0,77;;5,56;
20.03.2022 02:00;2,34;;0,15;48,44;3,98;1,74;75,23;14,01;0,81;;5,14;
20.03.2022 03:00;2,39;;0,15;47,34;4,18;1,99;75,24;11,92;0,85;;5,92;
20.03.2022 04:00;2,38;;0,15;45,4;4,29;2,05;76,46;12,17;0,84;;7,09;
20.03.2022 05:00;2,28;;0,14;45,98;3,7;1,49;77,4;16,93;0,85;;6,85;
20.03.2022 06:00;2,73;;0,18;46,28;6,73;5,17;72,23;10,17;0,95;;7,81;
20.03.2022 07:00;2,86;;0,19;45,63;6,84;5,27;76,28;18,15;0,97;;9;
20.03.2022 08:00;2,78;;0,18;41,44;6,63;4,99;81,44;8,58;0,7;;12,43;
20.03.2022 09:00;2,47;;0,16;39,56;4,81;2,65;86,64;17,57;0,64;;13,86;
20.03.2022 10:00;2,6;;0,16;38,66;5,46;3,42;86,56;13,97;1,15;;15,45;
20.03.2022 11:00;2,55;;0,16;37,67;5,1;3,05;89,74;20,21;1,09;;16,65;
20.03.2022 12:00;2,61;;0,16;42,92;5,3;3,27;84,58;19,47;1,19;;13,7;
20.03.2022 13:00;2,75;;0,16;41,89;5,84;3,93;86,57;21,56;1,14;;16,38;
20.03.2022 14:00;2,51;;0,15;34,28;4,81;2,63;104,05;23,49;0,64;;22,57;
20.03.2022 15:00;2,43;;0,14;32,72;4,6;2,38;107,32;21,98;0,68;;23,42;
20.03.2022 16:00;2,38;;0,13;35;4,36;2,06;99,68;16,52;0,83;;20,55;
20.03.2022 17:00;2,23;;0,12;37,89;3,88;1,58;90,64;19,88;1,79;;14,8;
20.03.2022 18:00;2,23;;0,12;38,82;3,76;1,42;88,24;9,45;0,54;;12,81;
20.03.2022 19:00;2,19;;0,11;39,87;3,67;1,37;87,36;6,73;0,47;;11,39;
20.03.2022 20:00;2,33;;0,14;39,51;4,34;2,14;85,63;12,18;0,63;;11,6;
20.03.2022 21:00;3,28;;0,25;38,42;10,15;9,8;71,94;11,22;0,74;;13,32;
20.03.2022 22:00;2,6;;0,18;39,02;5,44;3,52;83,06;16,17;0,62;;11,39;
20.03.2022 23:00;2,78;;0,2;39,02;6,83;5,28;79,22;5,85;0,61;;11,55;
21.03.2022 00:00;2,82;;0,19;42,16;6,77;5,25;76,5;13,54;0,76;;9,83;
21.03.2022 01:00;2,96;;0,2;44,56;7,81;6,62;71,2;14,28;0,87;;8,53;
21.03.2022 02:00;3,62;;0,26;47,08;14,71;16,04;50,65;15,09;0,54;;7,97;
21.03.2022 03:00;3,68;;0,24;49,25;15,43;17,03;48,66;10,54;0,5;;6,84;
21.03.2022 04:00;3,04;;0,21;49,31;8,62;7,72;61,88;19,49;0,46;;5,35;
21.03.2022 05:00;3,93;;0,3;50,75;19,8;23,01;40,25;4,48;0,66;;5,62;
21.03.2022 06:00;4,52;;0,36;49,34;28,31;34,65;30,57;11,67;0,55;;6,24;
21.03.2022 07:00;4,9;;0,38;50,25;30,54;37,7;24,61;22,43;0,72;;6,05;
21.03.2022 08:00;4,33;;0,33;41,92;22,72;27;41,83;9,56;0,53;;10,29;
21.03.2022 09:00;3,59;;0,27;37,94;13,54;14,44;62,81;24,33;0,63;;13,17;
21.03.2022 10:00;3,06;;0,22;35,55;8,1;6,99;77,68;12,92;0,41;;15,75;
21.03.2022 11:00;2,84;;0,19;36,77;6,81;5,24;82,61;17,65;0,56;;15,78;
21.03.2022 12:00;2,67;;0,19;33,58;5,94;4,08;88,33;15,43;0,42;;18,36;
21.03.2022 13:00;2,41;;0,15;30,61;4,8;2,66;96,21;20,26;0,55;;20,31;
21.03.2022 14:00;2,41;;0,17;28,24;4,96;2,8;106,06;26,4;0,6;;23,15;
21.03.2022 15:00;2,43;;0,16;30,02;4,78;2,61;98,08;25,7;0,91;;20,93;
21.03.2022 16:00;2,45;;0,17;32,4;4,71;2,49;91,99;44,59;0,85;;18,13;
21.03.2022 17:00;2,54;;0,18;32,7;4,92;2,79;89,13;31,71;0,79;;18,14;
21.03.2022 18:00;2,79;;0,2;35,45;5,86;3,93;84,81;32,7;0,72;;15,49;
21.03.2022 19:00;2,94;;0,25;36,19;6,9;5,39;78,84;25,03;0,61;;13,88;
21.03.2022 20:00;3,5;;0,31;36,81;10,76;10,63;67,66;35,04;0,91;;13,63;
21.03.2022 21:00;4,47;;0,39;40,23;22,6;26,83;43,97;29,13;0,97;;11,56;
21.03.2022 22:00;4,44;;0,35;43,87;22,97;27,35;40,52;25,98;0,9;;9,4;
21.03.2022 23:00;4,97;;0,37;48,84;32,19;39,96;24,15;27,23;0,92;;7,15;
22.03.2022 00:00;5,1;;0,36;50,8;33,43;41,66;22,52;20,67;0,9;;6,21;
22.03.2022 01:00;4,5;;0,32;51,98;23,39;27,92;35,5;28,7;0,82;;5,39;
22.03.2022 02:00;4,22;;0,32;50,77;19,95;23,22;40,92;13,65;0,62;;5,73;
22.03.2022 03:00;5,24;;0,37;53,65;37,08;46,65;20,91;19,41;0,71;;4,53;
22.03.2022 04:00;5,55;;0,38;54,89;40,47;51,29;19,04;19,52;0,77;;3,98;
22.03.2022 05:00;5,46;;0,39;57,08;38,78;48,97;19,39;24,27;0,71;;2,94;
22.03.2022 06:00;6,05;;0,44;54,82;39,91;50,52;19,3;22,32;0,87;;3,82;
22.03.2022 07:00;6,21;;0,45;51,19;40,23;50,96;19,28;40,34;1,15;;5,93;
22.03.2022 08:00;5,29;;0,36;42,56;32,77;40,75;28,69;24,34;0,65;;10,73;
22.03.2022 09:00;4,23;;0,3;38,63;19,23;22,23;55,29;25,98;0,58;;13,63;
22.03.2022 10:00;3,52;;0,24;35,67;11,58;11,76;71,5;13,23;0,42;;16,48;
22.03.2022 11:00;3,05;;0,2;33,67;7,87;6,68;81,41;9,67;0,35;;17,91;
22.03.2022 12:00;2,89;;0,19;31,34;6,9;5,35;91,19;12,39;0,33;;20,57;
22.03.2022 13:00;2,73;;0,18;29,57;5,81;3,89;102,22;20,02;0,51;;22,72;
22.03.2022 14:00;2,76;;0,18;27,49;6,22;4,43;111,29;24,06;0,38;;26,09;
22.03.2022 15:00;2,79;;0,19;26,55;6,38;4,65;112,21;27,11;0,6;;27,07;
22.03.2022 16:00;2,57;;0,2;26;5,27;3,15;113,45;26,88;0,58;;25,89;
22.03.2022 17:00;2,46;;0,19;26,8;4,93;2,82;99,67;32,53;0,56;;21,67;
22.03.2022 18:00;2,77;;0,24;29,23;6,24;4,52;87,37;22,05;0,71;;18,31;
22.03.2022 19:00;2,7;;0,19;31,48;5,72;3,81;84,92;23,64;0,59;;15,35;
22.03.2022 20:00;3,77;;0,29;31,9;14,55;15,82;66,31;24,37;0,5;;15,26;
22.03.2022 21:00;5,04;;0,43;35,93;29,37;36,11;41,15;30,63;1,03;;13,3;
22.03.2022 22:00;5,57;;0,47;39,76;36,03;45,22;28,89;28,07;0,94;;11,45;
22.03.2022 23:00;5,96;;0,44;45,02;39,8;50,38;21,66;23,89;0,92;;8,95;
23.03.2022 00:00;6,19;;0,43;47,35;42,51;54,08;17,76;24,12;0,73;;8,08;
23.03.2022 01:00;5,53;;0,38;49,69;36,49;45,84;20,78;21,8;0,8;;6,58;
23.03.2022 02:00;5,53;;0,39;52,83;37,99;47,9;20,55;18,96;0,71;;5,19;
23.03.2022 03:00;5,75;;0,38;51,96;40,18;50,89;19,38;20,46;0,67;;5,44;
23.03.2022 04:00;5,71;;0,37;54,27;39,01;49,3;19,58;15,56;0,53;;4,27;
23.03.2022 05:00;5,77;;0,4;55,24;40,18;50,89;19,28;24,56;0,5;;3,76;
23.03.2022 06:00;6,24;;0,43;54,33;40,38;51,17;19,12;19,15;0,89;;4,07;
23.03.2022 07:00;6,48;;0,48;50,71;44,63;56,98;15,61;19,95;0,81;;6,4;
23.03.2022 08:00;6,96;;0,52;43,52;45,78;58,56;17,39;81,28;1,57;;11;
23.03.2022 09:00;6,45;;0,48;39,16;39,79;50,36;29,9;88,37;1,57;;13,87;
23.03.2022 10:00;4,86;;0,34;36,22;23,92;28,65;53,99;31,03;0,82;;16,15;
23.03.2022 11:00;3,92;;0,29;30,12;14,03;15,11;85,94;24,58;0,64;;21,6;
23.03.2022 12:00;3,5;;0,25;29,13;10,65;10,49;93,02;34,79;0,8;;22,8;
23.03.2022 13:00;2,62;;0,19;25,92;6;4,18;108,85;15,95;0,45;;24,67;
23.03.2022 14:00;2,45;;0,17;24,94;5,08;2,94;115,42;13,43;0,34;;26,46;
23.03.2022 15:00;2,4;;0,17;24,01;4,67;2,45;117,44;9,56;0,38;;27,59;
23.03.2022 16:00;2,32;;0,16;23,5;4,98;2,87;117;15,81;0,34;;27,33;
23.03.2022 17:00;2,35;;0,17;25,5;4,72;2,59;103,24;19,7;0,49;;22,33;
23.03.2022 18:00;3,18;;0,3;27,24;11;11,02;83,06;21,08;0,59;;19,85;
23.03.2022 19:00;5,36;;0,54;30,4;31,21;38,62;47,4;28,01;0,77;;17,94;
23.03.2022 20:00;6,69;;0,55;35,5;43,28;55,14;31,05;37,35;0,94;;14,74;
23.03.2022 21:00;6,6;;0,46;40,41;41,33;52,47;25,83;34,4;1,24;;11,76;
23.03.2022 22:00;7,18;;0,5;42,13;47,23;60,55;18,48;25,41;1,06;;11,23;
23.03.2022 23:00;6,13;;0,41;43,43;39,08;49,39;22,63;25,51;0,78;;9,61;
24.03.2022 00:00;6,85;;0,45;47,1;43,36;55,25;17,41;31,26;0,78;;8,04;
24.03.2022 01:00;6,92;;0,46;47,75;46,9;60,09;15,29;26,94;0,7;;8,05;
24.03.2022 02:00;6,93;;0,44;50,73;46;58,86;15,44;27,31;0,7;;6,53;
24.03.2022 03:00;6,74;;0,44;51,49;46,3;59,26;15,16;15,85;0,7;;6,06;
24.03.2022 04:00;6,53;;0,43;53,44;44,93;57,39;15,59;26,81;0,68;;5,07;
24.03.2022 05:00;7,09;;0,44;54,52;45,93;58,76;14,78;30,46;0,84;;4,49;
24.03.2022 06:00;6,85;;0,47;53,22;44,93;57,4;15,25;23,54;0,93;;5,06;
24.03.2022 07:00;7,47;;0,47;46,95;46,32;59,3;15,12;42,93;0,87;;8,35;
24.03.2022 08:00;6,92;;0,44;44,23;43,95;56,05;20,37;25,39;0,81;;10,5;
24.03.2022 09:00;6,08;;0,41;37,26;37,46;47,17;37,95;52,35;1,34;;15,3;
24.03.2022 10:00;5,12;;0,34;34,5;24,92;30,01;56,77;44,09;0,98;;18,4;
24.03.2022 11:00;4,42;;0,29;31,42;17,37;19,69;78,92;41,96;0,74;;22,18;
24.03.2022 12:00;3,43;;0,24;28,81;9,55;8,98;99,1;54,53;0,77;;23,83;
24.03.2022 13:00;2,41;;0,16;25,61;4,69;2,44;113,63;25,58;0,48;;25,27;
24.03.2022 14:00;2,34;;0,15;24,43;4,43;2,14;117,16;22,6;0,63;;26,74;
24.03.2022 15:00;2,37;;0,17;23,75;4,65;2,45;119,45;20,64;0,37;;28,84;
24.03.2022 16:00;2,3;;0,15;25,26;4,44;2,18;115,31;19,19;0,45;;25,91;
24.03.2022 17:00;2,37;;0,16;27,59;4,54;2,34;100,1;175,22;2,78;;21,39;